Date String (YYYY-MM-DD hh:mm:ss) UTC,Instrument flags,Ambient pressure (hPa),Sample flow (lpm),Bypass flow (lpm),Sample temperature (°C),Ambient temperature (°C),ASC tube jacket temperature (°C),LED temperature (°C),Box temperature (°C),Sample RH (%),Span deviation,Mass concentration (μg/m³),Mass concentration (μg/m³),Mass concentration (μg/m³)
DateTimeUTC,F1_M11,P_M11,Q1_M11,Q2_M11,T1_M11,T2_M11,T3_M11,T4_M11,T5_M11,U1_M11,ZSPAN_M11,X0_M11,X2_M11,X1_M11
2021-10-16 02:00:00,,0832.8,5.00,0.00,28.5,27.6,00.0,37.7,30.1,07.8,0000.0,0011.50,0003.95,0003.47
2021-10-16 02:01:00,,0832.8,4.99,0.00,28.4,27.5,00.0,37.7,30.1,07.9,0000.0,0011.63,0003.92,0003.41
2021-10-16 02:02:00,,0832.8,5.01,0.00,28.4,27.5,00.0,37.6,30.0,07.9,0000.0,0011.21,0003.84,0003.32
2021-10-16 02:03:00,,0832.8,4.99,0.00,28.3,27.4,00.0,37.6,30.0,07.9,0000.0,0010.48,0003.75,0003.22
2021-10-16 02:04:00,,0832.9,5.00,0.00,28.3,27.4,00.0,37.6,29.9,07.9,0000.0,0010.83,0003.64,0003.12
2021-10-16 02:05:00,,0832.8,4.99,0.00,28.3,27.3,00.0,37.6,29.9,07.9,0000.0,0010.80,0003.54,0002.95
2021-10-16 02:06:00,,0832.8,5.01,0.00,28.2,27.3,00.0,37.5,29.8,07.9,0000.0,0010.07,0003.44,0002.80
2021-10-16 02:07:00,,0832.8,4.99,0.00,28.2,27.3,00.0,37.5,29.8,07.9,0000.0,0009.90,0003.34,0002.62
2021-10-16 02:08:00,,0832.8,5.00,0.00,28.1,27.2,00.0,37.5,29.8,07.9,0000.0,0009.80,0003.26,0002.49
2021-10-16 02:09:00,,0832.8,5.00,0.00,28.1,27.2,00.0,37.4,29.7,07.9,0000.0,0009.48,0003.17,0002.35
2021-10-16 02:10:00,,0832.8,5.00,0.00,28.1,27.2,00.0,37.4,29.7,08.0,0000.0,0008.85,0003.02,0002.18
2021-10-16 02:11:00,,0832.9,5.01,0.00,28.1,27.2,00.0,37.4,29.7,08.0,0000.0,0007.43,0002.78,0002.02
2021-10-16 02:12:00,,0832.8,4.99,0.00,28.0,27.2,00.0,37.4,29.7,08.0,0000.0,0006.08,0002.55,0001.87
2021-10-16 02:13:00,,0832.8,4.99,0.00,28.0,27.2,00.0,37.3,29.7,08.1,0000.0,0005.60,0002.40,0001.80
2021-10-16 02:14:00,,0832.9,5.02,0.00,28.0,27.2,00.0,37.3,29.7,08.1,0000.0,0005.40,0002.31,0001.75
2021-10-16 02:15:00,,0832.9,5.00,0.00,28.0,27.2,00.0,37.3,29.6,08.1,0000.0,0004.33,0002.24,0001.72
2021-10-16 02:16:00,,0832.9,5.00,0.00,28.0,27.1,00.0,37.3,29.6,08.1,0000.0,0003.36,0002.18,0001.66
2021-10-16 02:17:00,,0832.9,5.01,0.00,27.9,27.1,00.0,37.3,29.6,08.3,0000.0,0003.26,0002.13,0001.65
2021-10-16 02:18:00,,0832.9,4.99,0.00,27.9,27.0,00.0,37.2,29.6,08.1,0000.0,0003.47,0002.14,0001.64
2021-10-16 02:19:00,,0832.8,5.01,0.00,27.9,27.0,00.0,37.2,29.5,08.1,0000.0,0003.85,0002.12,0001.63
2021-10-16 02:20:00,,0832.8,4.98,0.00,27.8,27.0,00.0,37.2,29.5,08.1,0000.0,0003.98,0002.16,0001.62
2021-10-16 02:21:00,,0832.8,5.01,0.00,27.8,26.9,00.0,37.1,29.5,08.2,0000.0,0004.11,0002.17,0001.60
2021-10-16 02:22:00,,0832.8,4.99,0.00,27.8,26.9,00.0,37.1,29.4,08.2,0000.0,0004.06,0002.14,0001.58
2021-10-16 02:23:00,,0832.9,4.99,0.00,27.8,26.9,00.0,37.1,29.4,08.2,0000.0,0004.06,0002.13,0001.57
2021-10-16 02:24:00,,0832.9,5.00,0.00,27.8,26.9,00.0,37.1,29.5,08.2,0000.0,0004.10,0002.16,0001.57
2021-10-16 02:25:00,,0833.0,5.01,0.00,27.8,27.0,00.0,37.0,29.5,08.2,0000.0,0004.18,0002.19,0001.58
2021-10-16 02:26:00,,0833.0,5.00,0.00,27.8,27.0,00.0,37.0,29.5,08.2,0000.0,0004.29,0002.24,0001.58
2021-10-16 02:27:00,,0833.0,5.00,0.00,27.8,26.9,00.0,37.0,29.5,08.2,0000.0,0004.38,0002.29,0001.61
2021-10-16 02:28:00,,0833.0,5.01,0.00,27.7,26.9,00.0,37.0,29.4,08.3,0000.0,0004.52,0002.34,0001.62
2021-10-16 02:29:00,,0832.9,5.02,0.00,27.7,26.9,00.0,37.0,29.4,08.3,0000.0,0004.44,0002.36,0001.62
2021-10-16 02:30:00,,0832.9,5.00,0.00,27.7,26.8,00.0,37.0,29.4,08.4,0000.0,0004.26,0002.37,0001.63
2021-10-16 02:31:00,,0833.0,4.99,0.00,27.6,26.8,00.0,36.9,29.3,08.4,0000.0,0005.15,0002.34,0001.64
2021-10-16 02:32:00,,0833.0,4.99,0.00,27.6,26.8,00.0,36.9,29.3,08.4,0000.0,0005.06,0002.33,0001.65
2021-10-16 02:33:00,,0833.0,4.99,0.00,27.6,26.8,00.0,36.9,29.4,08.5,0000.0,0005.12,0002.39,0001.67
2021-10-16 02:34:00,,0833.1,5.00,0.00,27.7,26.8,00.0,36.9,29.4,08.5,0000.0,0005.33,0002.45,0001.68
2021-10-16 02:35:00,,0833.1,5.00,0.00,27.7,26.9,00.0,36.9,29.5,08.4,0000.0,0005.45,0002.47,0001.70
2021-10-16 02:36:00,,0833.1,5.00,0.00,27.7,26.9,00.0,36.9,29.4,08.4,0000.0,0005.39,0002.46,0001.72
2021-10-16 02:37:00,,0833.0,5.00,0.00,27.7,26.9,00.0,36.9,29.4,08.5,0000.0,0005.88,0002.45,0001.74
2021-10-16 02:38:00,,0833.1,5.00,0.00,27.7,26.9,00.0,36.9,29.4,08.5,0000.0,0006.29,0002.48,0001.75
2021-10-16 02:39:00,,0833.1,5.01,0.00,27.7,26.9,00.0,36.9,29.5,08.4,0000.0,0006.29,0002.51,0001.77
2021-10-16 02:40:00,,0833.0,4.99,0.00,27.7,26.9,00.0,36.8,29.5,08.4,0000.0,0006.36,0002.54,0001.79
2021-10-16 02:41:00,,0833.1,4.99,0.00,27.8,27.0,00.0,36.9,29.5,08.3,0000.0,0006.30,0002.53,0001.81
2021-10-16 02:42:00,,0833.0,5.01,0.00,27.8,27.0,00.0,36.9,29.6,08.4,0000.0,0005.16,0002.55,0001.83
2021-10-16 02:43:00,,0833.0,5.00,0.00,27.8,27.0,00.0,36.9,29.6,08.4,0000.0,0005.12,0002.57,0001.84
2021-10-16 02:44:00,,0833.0,5.01,0.00,27.8,27.1,00.0,36.9,29.6,08.3,0000.0,0005.04,0002.51,0001.84
2021-10-16 02:45:00,,0833.0,4.99,0.00,27.9,27.1,00.0,36.9,29.7,08.4,0000.0,0004.98,0002.50,0001.85
2021-10-16 02:46:00,,0833.0,4.99,0.00,27.9,27.1,00.0,36.9,29.7,08.5,0000.0,0004.79,0002.50,0001.89
2021-10-16 02:47:00,,0833.1,5.00,0.00,27.9,27.1,00.0,36.9,29.7,08.5,0000.0,0005.00,0002.56,0001.93
2021-10-16 02:48:00,,0833.0,4.99,0.00,27.9,27.1,00.0,36.9,29.7,08.4,0000.0,0005.04,0002.64,0001.95
2021-10-16 02:49:00,,0833.0,5.00,0.00,27.9,27.1,00.0,36.9,29.7,08.3,0000.0,0004.66,0002.68,0001.99
2021-10-16 02:50:00,,0833.0,5.00,0.00,27.9,27.1,00.0,36.9,29.7,08.3,0000.0,0004.59,0002.67,0002.01
2021-10-16 02:51:00,,0833.1,4.99,0.00,27.9,27.1,00.0,36.9,29.7,08.3,0000.0,0004.45,0002.65,0002.03
2021-10-16 02:52:00,,0833.0,4.99,0.00,27.9,27.1,00.0,36.9,29.7,08.3,0000.0,0004.51,0002.71,0002.08
2021-10-16 02:53:00,,0833.1,5.00,0.00,28.0,27.1,00.0,37.0,29.7,08.3,0000.0,0004.51,0002.73,0002.12
2021-10-16 02:54:00,,0833.1,5.01,0.00,28.0,27.1,00.0,37.0,29.7,08.3,0000.0,0004.87,0002.78,0002.16
2021-10-16 02:55:00,,0833.0,4.99,0.00,28.0,27.1,00.0,37.0,29.7,08.3,0000.0,0005.31,0002.86,0002.22
2021-10-16 02:56:00,,0833.0,5.02,0.00,28.0,27.1,00.0,37.0,29.7,08.3,0000.0,0005.49,0002.95,0002.28
2021-10-16 02:57:00,,0833.1,4.99,0.00,28.0,27.1,00.0,37.0,29.8,08.3,0000.0,0005.69,0002.96,0002.31
2021-10-16 02:58:00,,0833.1,5.00,0.00,28.0,27.1,00.0,37.0,29.8,08.2,0000.0,0006.19,0002.97,0002.30
2021-10-16 02:59:00,,0833.0,5.00,0.00,28.0,27.1,00.0,37.0,29.8,08.2,0000.0,0006.67,0002.99,0002.33
